This demonstration page uses our WeatherBlox Daily Observations layout. Learn more.

Left ArrowRight Arrow

34.02893, -84.19858

Hourly Observations for October 30, 2015

Temp ( °F °C ) Dew Point ( °F °C ) Humidity (%) Winds ( mph kmh ) Pressure ( in mb ) Visibility ( mi km ) Precip ( " mm )
12:43 am 00:43 Clear with Mist and Fog 50 10 50 10 100 100 Calm 29.97 1015 2 3 0.00 0.00
12:53 am 00:53 Clear with Mist and Fog 52 11.1 51 10.6 97 97 Calm 29.96 1015 3 5 0.00 0.00
1:53 am 01:53 Clear 50 10 49 9.4 96 96 Calm 29.96 1015 10 16 0.00 0.00
2:53 am 02:53 Clear with Mist and Fog 48 8.9 47 8.3 96 96 Calm 29.98 1015 2 2 0.00 0.00
3:05 am 03:05 Clear with Mist and Fog 47 8.3 47 8.3 100 100 Calm 30.03 1017 3 5 0.00 0.00
3:11 am 03:11 Clear with Mist and Fog 47 8.3 47 8.3 100 100 Calm 30.03 1017 2 3 0.00 0.00
3:20 am 03:20 Clear with Mist and Fog 48 9 46 8 94 94 Calm 30.00 1016 3 5 0.00 0.00
3:53 am 03:53 Clear with Mist and Fog 47 8.3 47 8.3 100 100 Calm 29.98 1015 5 8 0.00 0.00
4:28 am 04:28 Clear with Mist and Fog 46 8 46 8 100 100 Calm 30.03 1017 2 3 0.00 0.00
4:35 am 04:35 Clear with Mist and Fog 47 8.3 47 8.3 100 100 Calm 30.03 1017 3 5 0.00 0.00
4:53 am 04:53 Clear with Mist and Fog 46 7.8 46 7.8 100 100 Calm 29.99 1016 4 6 0.00 0.00
5:53 am 05:53 Clear 46 7.8 46 7.8 100 100 WNW 3 6 30.02 1017 10 16 0.00 0.00
6:53 am 06:53 Clear 47 8.3 45 7.2 93 93 WNW 5 7 30.03 1017 10 16 0.00 0.00
7:53 am 07:53 Clear 48 8.9 45 7.2 89 89 WNW 6 9 30.04 1017 10 16 0.00 0.00
8:53 am 08:53 Sunny 50 10 46 7.8 86 86 WNW 6 9 30.06 1018 10 16 0.00 0.00
9:53 am 09:53 Sunny 54 12.2 47 8.3 77 77 NW 6 9 30.08 1019 10 16 0.00 0.00
10:53 am 10:53 Sunny 58 14.4 43 6.1 58 58 WNW 9 15 30.08 1019 10 16 0.00 0.00
11:53 am 11:53 Sunny 62 16.7 40 4.4 44 44 VRB 6 9 30.08 1019 10 16 0.00 0.00
12:53 pm 12:53 Sunny 65 18.3 40 4.4 40 40 WNW 8 13 30.08 1019 10 16 0.00 0.00
1:53 pm 13:53 Sunny 67 19.4 40 4.4 37 37 W 6 9 30.06 1018 10 16 0.00 0.00
2:53 pm 14:53 Sunny 69 20.6 42 5.6 38 38 NW 10 17 30.04 1017 10 16 0.00 0.00
3:53 pm 15:53 Sunny 69 20.6 41 5 36 36 WNW 7 11 30.02 1017 10 16 0.00 0.00
4:53 pm 16:53 Sunny 67 19.4 42 5.6 41 41 NNW 7 11 30.02 1017 10 16 0.00 0.00
5:53 pm 17:53 Sunny 65 18.3 43 6.1 45 45 W 6 9 30.03 1017 10 16 0.00 0.00
6:53 pm 18:53 Clear 60 15.6 44 6.7 56 56 WNW 5 7 30.04 1017 10 16 0.00 0.00
7:53 pm 19:53 Clear 56 13.3 45 7.2 67 67 WNW 3 6 30.05 1018 10 16 0.00 0.00
8:53 pm 20:53 Clear 51 10.6 46 7.8 83 83 Calm 30.06 1018 10 16 0.00 0.00
9:53 pm 21:53 Clear 52 11.1 47 8.3 83 83 Calm 30.07 1018 10 16 0.00 0.00
10:53 pm 22:53 Clear 48 8.9 46 7.8 93 93 Calm 30.09 1019 10 16 0.00 0.00
11:53 pm 23:53 Clear 48 8.9 46 7.8 93 93 Calm 30.08 1019 10 16 0.00 0.00

Powered by AerisWeather